Santee, CA

4:58 PM PDT on May 25, 2017 (GMT -0700)
Gillespie

Weather History for KSEE - November, 2012

Change the Weather History Date:

Sunday, November 4, 2012

  Actual Average Record
Temperature  
Mean Temperature 70 °F -  
Max Temperature 93 °F 75 °F 98 °F (2010)
Min Temperature 48 °F 49 °F 36 °F (1982)
Cooling Degree Days 6    
Growing Degree Days 20 (Base 50)    
Moisture  
Dew Point 43 °F    
Average Humidity 71    
Maximum Humidity 100    
Minimum Humidity 6    
Precipitation  
Precipitation 0.00 in - - ()
Sea Level Pressure  
Sea Level Pressure 30.06 in    
Wind  
Wind Speed 1 mph (NNW)    
Max Wind Speed 14 mph    
Max Gust Speed -    
Visibility 8 miles    
Events      
Averages and records for this station are not official NWS values.
T = Trace of Precipitation, MM = Missing Value Source: NWS Daily Summary

Daily Weather History Graph

Daily Weather History Graph

Search for Another Location

Airport or City:

Trip Planner

Search our weather history database for the weather conditions in past years. The results will help you decide how hot, cold, wet, or windy it might be!

Date:

Astronomy

Nov. 04, 2012 Rise Set
Actual Time 6:08 AM PST 4:53 PM PST
Civil Twilight 5:43 AM PST 5:19 PM PST
Nautical Twilight 5:13 AM PST 5:48 PM PST
Astronomical Twilight 4:44 AM PST 6:17 PM PST
Moon 9:38 PM PST (11/4) 10:52 AM PST (11/4)
Length of Visible Light 11h 36m
Length of Day
10h 44m
Waning Gibbous, 71% of the Moon is Illuminated
Nov 4
Waning Gibbous
Nov 6
Last Quarter
Nov 13
New
Nov 20
First Quarter
Nov 28
Full

Hourly Weather History & Observations

Time (PST) Temp. Dew Point Humidity Pressure Visibility Wind Dir Wind Speed Gust Speed Precip Events Conditions
12:15 AM 55.4 °F 53.6 °F 94% 30.06 in 4.0 mi Calm Calm - N/A   Clear
12:35 AM 55.4 °F 53.6 °F 94% 30.06 in 5.0 mi Calm Calm - N/A   Clear
12:55 AM 53.6 °F 53.6 °F 100% 30.06 in 4.0 mi Calm Calm - N/A   Clear
1:15 AM 53.6 °F 53.6 °F 100% 30.06 in 3.0 mi Calm Calm - N/A   Clear
1:35 AM 53.6 °F 53.6 °F 100% 30.06 in 3.0 mi Calm Calm - N/A   Clear
1:55 AM 53.6 °F 53.6 °F 100% 30.06 in 4.0 mi Calm Calm - N/A   Clear
1:15 AM 53.6 °F 53.6 °F 100% 30.06 in 4.0 mi Calm Calm - N/A   Clear
1:35 AM 51.8 °F 51.8 °F 100% 30.06 in 4.0 mi Calm Calm - N/A   Clear
1:55 AM 51.8 °F 51.8 °F 100% 30.06 in 5.0 mi Calm Calm - N/A   Clear
2:15 AM 51.8 °F 51.8 °F 100% 30.05 in 5.0 mi NW 3.5 mph - N/A   Clear
2:35 AM 50.0 °F 50.0 °F 100% 30.05 in 5.0 mi North - - N/A   Clear
2:55 AM 50.0 °F 50.0 °F 100% 30.05 in 7.0 mi Calm Calm - N/A   Clear
3:15 AM 50.0 °F 50.0 °F 100% 30.05 in 7.0 mi Calm Calm - N/A   Clear
3:35 AM 50.0 °F 50.0 °F 100% 30.05 in 7.0 mi Calm Calm - N/A   Clear
3:55 AM 48.2 °F 48.2 °F 100% 30.05 in 7.0 mi Calm Calm - N/A   Clear
4:15 AM 48.2 °F 48.2 °F 100% 30.05 in 8.0 mi Calm Calm - N/A   Clear
4:35 AM 48.2 °F 48.2 °F 100% 30.05 in 8.0 mi Calm Calm - N/A   Clear
4:55 AM 48.2 °F 48.2 °F 100% 30.05 in 10.0 mi Calm Calm - N/A   Clear
5:15 AM 48.2 °F 48.2 °F 100% 30.05 in 10.0 mi Calm Calm - N/A   Clear
6:47 AM 48.2 °F 46.4 °F 93% 30.07 in 20.0 mi Calm Calm - N/A   Clear
7:47 AM 55.4 °F 46.4 °F 72% 30.09 in 25.0 mi Calm Calm - N/A   Clear
9:47 AM 75.2 °F 42.8 °F 31% 30.07 in 25.0 mi Calm Calm - N/A   Clear
11:55 AM 93.2 °F 30.2 °F 11% 30.01 in 25.0 mi Calm Calm - N/A   Clear
3:47 PM 91.4 °F 15.8 °F 6% 29.99 in 25.0 mi NNE 13.8 mph - N/A   Clear
4:55 PM 84.2 °F 30.2 °F 14% 30.00 in 12.0 mi Variable 6.9 mph - N/A   Clear
8:15 PM 64.4 °F 32.0 °F 30% 30.06 in 10.0 mi Calm Calm - N/A   Clear
8:35 PM 62.6 °F 32.0 °F 32% 30.07 in 10.0 mi Calm Calm - N/A   Clear
8:55 PM 62.6 °F 32.0 °F 32% 30.07 in 10.0 mi Calm Calm - N/A   Clear
9:15 PM 62.6 °F 32.0 °F 32% 30.07 in 10.0 mi Calm Calm - N/A   Clear
9:35 PM 60.8 °F 32.0 °F 34% 30.08 in 10.0 mi Calm Calm - N/A   Clear
9:55 PM 60.8 °F 32.0 °F 34% 30.07 in 10.0 mi WNW 3.5 mph - N/A   Clear
10:15 PM 59.0 °F 32.0 °F 36% 30.08 in 10.0 mi Calm Calm - N/A   Clear
10:35 PM 59.0 °F 32.0 °F 36% 30.08 in 10.0 mi Calm Calm - N/A   Clear
10:55 PM 57.2 °F 32.0 °F 38% 30.08 in 10.0 mi Calm Calm - N/A   Clear